This is the latest recevied weather packets stored in our database for station/object AB4KN. If no packets are shown the sender has not sent any weather packets the latest 10 day(s).
| Time | Temp. | Humidity | Pressure | Rain* | Wind** | Luminosity | Snow |
|---|---|---|---|---|---|---|---|
| 1777939063 | 23.33° C | 36% | 1019.5 hPa | 0 mm | - | 6 W/m² | - |
| 1777938759 | 23.33° C | 36% | 1019.3 hPa | 0 mm | - | 6 W/m² | - |
| 1777938456 | 23.33° C | 35% | 1019.4 hPa | 0 mm | - | 8 W/m² | - |
| 1777938154 | 23.89° C | 35% | 1019.3 hPa | 0 mm | - | 9 W/m² | - |
| 1777937850 | 23.89° C | 34% | 1019.3 hPa | 0 mm | - | 9 W/m² | - |
| 1777937546 | 23.89° C | 34% | 1019.6 hPa | 0 mm | - | 11 W/m² | - |
| 1777937243 | 23.89° C | 33% | 1019.6 hPa | 0 mm | - | 10 W/m² | - |
| 1777936940 | 24.44° C | 33% | 1019.4 hPa | 0 mm | - | 10 W/m² | - |
| 1777936636 | 24.44° C | 32% | 1019.5 hPa | 0 mm | - | 10 W/m² | - |
| 1777936333 | 24.44° C | 31% | 1019.4 hPa | 0 mm | - | 12 W/m² | - |
| 1777936029 | 24.44° C | 31% | 1019.5 hPa | 0 mm | - | 12 W/m² | - |
| 1777935728 | 24.44° C | 30% | 1019.5 hPa | 0 mm | - | 14 W/m² | - |
| 1777935426 | 24.44° C | 31% | 1019.5 hPa | 0 mm | - | 15 W/m² | - |
| 1777935122 | 24.44° C | 30% | 1019.4 hPa | 0 mm | - | 16 W/m² | - |
| 1777934819 | 24.44° C | 31% | 1019.5 hPa | 0 mm | - | 13 W/m² | - |
| 1777934516 | 25° C | 31% | 1019.6 hPa | 0 mm | - | 14 W/m² | - |
| 1777934213 | 25° C | 29% | 1019.5 hPa | 0 mm | - | 16 W/m² | - |
| 1777933908 | 25° C | 29% | 1019.6 hPa | 0 mm | - | 20 W/m² | - |
| 1777933606 | 25° C | 30% | 1019.7 hPa | 0 mm | - | 25 W/m² | - |
| 1777933302 | 25° C | 30% | 1019.8 hPa | 0 mm | - | 25 W/m² | - |
| 1777933000 | 25° C | 31% | 1019.6 hPa | 0 mm | - | 22 W/m² | - |
| 1777932697 | 25° C | 31% | 1019.6 hPa | 0 mm | - | 22 W/m² | - |
| 1777932393 | 25° C | 31% | 1019.6 hPa | 0 mm | - | 23 W/m² | - |
| 1777932091 | 25° C | 31% | 1019.6 hPa | 0 mm | - | 29 W/m² | - |
| 1777931787 | 25° C | 31% | 1019.7 hPa | 0 mm | - | 35 W/m² | - |
* Rain latest hour (hover to see other rain measurements)
** Current wind speed in m/s (hover to see current wind gust speed)